MAS2513 WBGG-WMKK

Flight info

Callsign MAS2513
Flight time 1h 34m
Altitude 37000
Route DCT AGOBA M761 KILOT N892 KIBOL G334 SAROX
Aircraft A359/H-SDE2E3GHIJ3J4J5LM1ORWXY/LB1D1

Departure

Time 2026-04-19 03:13
Airport Kuching International Airport (WBGG)

Arrival

Time 2026-04-19 04:47
Airport Kuala Lumpur International Airport (WMKK)
Time Latitude Longitude Altitude Speed Heading
2026-04-19 02:50 1.48589 110.34046 84 ft 0 kts 338°
2026-04-19 02:56 1.48584 110.34048 88 ft 2 kts 338°
2026-04-19 02:56 1.48566 110.34056 88 ft 3 kts 338°
2026-04-19 02:56 1.48547 110.34063 88 ft 3 kts 338°
2026-04-19 02:56 1.48529 110.34071 88 ft 3 kts 332°
2026-04-19 02:57 1.48511 110.34081 86 ft 3 kts 328°
2026-04-19 02:57 1.48494 110.34091 88 ft 3 kts 332°
2026-04-19 02:57 1.48477 110.34100 89 ft 3 kts 331°
2026-04-19 02:57 1.48467 110.34105 88 ft 2 kts 332°
2026-04-19 02:58 1.48459 110.34111 87 ft 3 kts
2026-04-19 02:58 1.48454 110.34112 87 ft 3 kts 49°
2026-04-19 02:58 1.48447 110.34102 88 ft 1 kts 68°
2026-04-19 02:58 1.48442 110.34089 87 ft 3 kts 68°
2026-04-19 02:59 1.48435 110.34070 87 ft 2 kts 68°
2026-04-19 02:59 1.48433 110.34065 87 ft 0 kts 68°
2026-04-19 03:03 1.48440 110.34083 87 ft 6 kts 70°
2026-04-19 03:03 1.48459 110.34136 88 ft 10 kts 69°
2026-04-19 03:03 1.48487 110.34207 87 ft 12 kts 68°
2026-04-19 03:03 1.48522 110.34295 87 ft 13 kts 68°
2026-04-19 03:04 1.48557 110.34381 87 ft 14 kts 68°
2026-04-19 03:04 1.48597 110.34483 88 ft 17 kts 68°
2026-04-19 03:04 1.48633 110.34574 89 ft 14 kts 68°
2026-04-19 03:04 1.48660 110.34644 86 ft 7 kts 69°
2026-04-19 03:05 1.48681 110.34698 88 ft 10 kts 69°
2026-04-19 03:05 1.48710 110.34774 87 ft 14 kts 69°
2026-04-19 03:05 1.48751 110.34874 84 ft 18 kts 68°
2026-04-19 03:05 1.48799 110.34995 70 ft 17 kts 68°
2026-04-19 03:06 1.48840 110.35100 73 ft 18 kts 68°
2026-04-19 03:06 1.48870 110.35177 72 ft 13 kts 69°
2026-04-19 03:06 1.48908 110.35271 66 ft 16 kts 68°
2026-04-19 03:06 1.48954 110.35387 64 ft 15 kts 68°
2026-04-19 03:07 1.48995 110.35488 63 ft 16 kts 68°
2026-04-19 03:07 1.49025 110.35562 62 ft 12 kts 68°
2026-04-19 03:07 1.49061 110.35653 64 ft 16 kts 68°
2026-04-19 03:07 1.49106 110.35766 59 ft 19 kts 68°
2026-04-19 03:08 1.49159 110.35900 61 ft 23 kts 68°
2026-04-19 03:08 1.49223 110.36058 55 ft 26 kts 68°
2026-04-19 03:08 1.49258 110.36145 55 ft 9 kts 68°
2026-04-19 03:08 1.49287 110.36218 54 ft 13 kts 68°
2026-04-19 03:09 1.49325 110.36315 54 ft 17 kts 68°
2026-04-19 03:09 1.49372 110.36433 54 ft 20 kts 68°
2026-04-19 03:09 1.49426 110.36567 54 ft 22 kts 68°
2026-04-19 03:09 1.49469 110.36677 50 ft 0 kts 68°
2026-04-19 03:10 1.49470 110.36678 50 ft 0 kts 68°
2026-04-19 03:10 1.49477 110.36695 53 ft 6 kts 68°
2026-04-19 03:10 1.49485 110.36744 54 ft 8 kts 96°
2026-04-19 03:11 1.49450 110.36784 52 ft 9 kts 155°
2026-04-19 03:11 1.49388 110.36812 50 ft 4 kts 159°
2026-04-19 03:11 1.49386 110.36812 51 ft 1 kts 161°
2026-04-19 03:11 1.49367 110.36818 52 ft 5 kts 163°
2026-04-19 03:12 1.49341 110.36808 49 ft 5 kts 222°
2026-04-19 03:12 1.49321 110.36770 51 ft 8 kts 248°
2026-04-19 03:12 1.49278 110.36664 50 ft 28 kts 248°
2026-04-19 03:12 1.49120 110.36261 55 ft 99 kts 248°
2026-04-19 03:13 1.48786 110.35422 86 ft 162 kts 248°
2026-04-19 03:13 1.48301 110.34270 638 ft 178 kts 246°
2026-04-19 03:13 1.47817 110.33165 1594 ft 172 kts 246°
2026-04-19 03:13 1.47330 110.32076 2347 ft 174 kts 246°
2026-04-19 03:14 1.46985 110.30886 2731 ft 185 kts 263°
2026-04-19 03:14 1.47007 110.29532 2955 ft 207 kts 275°
2026-04-19 03:14 1.47214 110.28024 3209 ft 230 kts 279°
2026-04-19 03:14 1.47558 110.26391 3503 ft 250 kts 283°
2026-04-19 03:15 1.48011 110.24667 3953 ft 262 kts 285°
2026-04-19 03:15 1.48526 110.22894 4571 ft 267 kts 285°
2026-04-19 03:15 1.49062 110.21104 5204 ft 271 kts 286°
2026-04-19 03:15 1.49608 110.19279 5844 ft 274 kts 285°
2026-04-19 03:16 1.50150 110.17438 6474 ft 277 kts 285°
2026-04-19 03:16 1.50692 110.15582 7094 ft 279 kts 285°
2026-04-19 03:16 1.51229 110.13710 7731 ft 280 kts 284°
2026-04-19 03:16 1.51756 110.11856 8371 ft 282 kts 285°
2026-04-19 03:17 1.52295 110.09957 8984 ft 285 kts 284°
2026-04-19 03:17 1.52839 110.08042 9599 ft 287 kts 285°
2026-04-19 03:17 1.53386 110.06112 10180 ft 290 kts 285°
2026-04-19 03:17 1.53949 110.04130 10473 ft 304 kts 285°
2026-04-19 03:18 1.54540 110.02051 10717 ft 318 kts 285°
2026-04-19 03:18 1.55158 109.99884 10948 ft 330 kts 285°
2026-04-19 03:18 1.55799 109.97653 11285 ft 337 kts 286°
2026-04-19 03:18 1.56457 109.95384 11749 ft 340 kts 286°
2026-04-19 03:19 1.57121 109.93100 12219 ft 343 kts 287°
2026-04-19 03:19 1.57789 109.90800 12683 ft 346 kts 287°
2026-04-19 03:19 1.58460 109.88477 13150 ft 349 kts 287°
2026-04-19 03:19 1.59132 109.86141 13616 ft 351 kts 287°
2026-04-19 03:20 1.59807 109.83783 14060 ft 354 kts 287°
2026-04-19 03:20 1.60483 109.81414 14471 ft 356 kts 287°
2026-04-19 03:20 1.61156 109.79046 14853 ft 359 kts 287°
2026-04-19 03:20 1.61842 109.76635 15261 ft 361 kts 287°
2026-04-19 03:21 1.62533 109.74208 15711 ft 364 kts 287°
2026-04-19 03:21 1.63230 109.71761 16142 ft 366 kts 286°
2026-04-19 03:21 1.63921 109.69334 16550 ft 368 kts 286°
2026-04-19 03:21 1.64633 109.66834 16936 ft 370 kts 286°
2026-04-19 03:22 1.65331 109.64382 17306 ft 373 kts 286°
2026-04-19 03:22 1.66041 109.61884 17707 ft 375 kts 286°
2026-04-19 03:22 1.66755 109.59370 18133 ft 377 kts 286°
2026-04-19 03:22 1.67481 109.56808 18485 ft 379 kts 286°
2026-04-19 03:23 1.68196 109.54290 18804 ft 381 kts 286°
2026-04-19 03:23 1.68924 109.51735 19125 ft 384 kts 286°
2026-04-19 03:23 1.69660 109.49155 19457 ft 386 kts 286°
2026-04-19 03:23 1.70396 109.46570 19771 ft 388 kts 286°
2026-04-19 03:24 1.71136 109.43968 20085 ft 390 kts 286°
2026-04-19 03:24 1.71881 109.41352 20407 ft 392 kts 287°
2026-04-19 03:24 1.72629 109.38722 20710 ft 394 kts 287°
2026-04-19 03:24 1.73383 109.36070 21026 ft 397 kts 287°
2026-04-19 03:25 1.74140 109.33406 21338 ft 399 kts 287°
2026-04-19 03:25 1.74892 109.30765 21647 ft 401 kts 287°
2026-04-19 03:25 1.75656 109.28075 21949 ft 403 kts 287°
2026-04-19 03:25 1.76425 109.25369 22239 ft 405 kts 287°
2026-04-19 03:26 1.77199 109.22647 22540 ft 407 kts 287°
2026-04-19 03:26 1.77976 109.19916 22842 ft 409 kts 287°
2026-04-19 03:26 1.78757 109.17169 23135 ft 411 kts 287°
2026-04-19 03:26 1.79541 109.14412 23409 ft 414 kts 287°
2026-04-19 03:27 1.80330 109.11635 23665 ft 416 kts 287°
2026-04-19 03:27 1.81123 109.08848 23906 ft 417 kts 287°
2026-04-19 03:27 1.81916 109.06057 24163 ft 419 kts 287°
2026-04-19 03:27 1.82715 109.03243 24402 ft 421 kts 287°
2026-04-19 03:28 1.83508 109.00452 24672 ft 422 kts 287°
2026-04-19 03:28 1.84311 108.97629 24911 ft 423 kts 287°
2026-04-19 03:28 1.85114 108.94800 25153 ft 425 kts 287°
2026-04-19 03:28 1.85926 108.91944 25398 ft 427 kts 287°
2026-04-19 03:29 1.86737 108.89090 25653 ft 428 kts 287°
2026-04-19 03:29 1.87553 108.86216 25904 ft 430 kts 287°
2026-04-19 03:29 1.88373 108.83328 26154 ft 431 kts 287°
2026-04-19 03:29 1.89194 108.80440 26439 ft 432 kts 287°
2026-04-19 03:30 1.90006 108.77580 26694 ft 434 kts 287°
2026-04-19 03:30 1.90836 108.74661 26951 ft 436 kts 287°
2026-04-19 03:30 1.91668 108.71732 27211 ft 438 kts 287°
2026-04-19 03:30 1.92500 108.68801 27481 ft 439 kts 287°
2026-04-19 03:31 1.93336 108.65855 27744 ft 441 kts 287°
2026-04-19 03:31 1.94176 108.62893 28025 ft 443 kts 287°
2026-04-19 03:31 1.95011 108.59953 28297 ft 445 kts 287°
2026-04-19 03:31 1.95857 108.56976 28573 ft 447 kts 287°
2026-04-19 03:32 1.96707 108.53985 28862 ft 448 kts 287°
2026-04-19 03:32 1.97561 108.50977 29134 ft 450 kts 287°
2026-04-19 03:32 1.98420 108.47955 29424 ft 452 kts 287°
2026-04-19 03:32 1.99273 108.44920 29704 ft 454 kts 287°
2026-04-19 03:33 2.00124 108.41871 29994 ft 456 kts 285°
2026-04-19 03:33 2.00972 108.38806 30242 ft 458 kts 287°
2026-04-19 03:33 2.01824 108.35733 30520 ft 460 kts 287°
2026-04-19 03:33 2.02685 108.32645 30782 ft 461 kts 287°
2026-04-19 03:34 2.03549 108.29553 31050 ft 463 kts 287°
2026-04-19 03:34 2.04416 108.26449 31336 ft 465 kts 287°
2026-04-19 03:34 2.05289 108.23329 31599 ft 467 kts 287°
2026-04-19 03:34 2.06164 108.20198 31879 ft 468 kts 287°
2026-04-19 03:35 2.07047 108.17047 32150 ft 470 kts 286°
2026-04-19 03:35 2.07931 108.13887 32419 ft 472 kts 286°
2026-04-19 03:35 2.08804 108.10763 32691 ft 474 kts 286°
2026-04-19 03:35 2.09691 108.07584 32948 ft 476 kts 286°
2026-04-19 03:36 2.10581 108.04393 33211 ft 477 kts 286°
2026-04-19 03:36 2.11475 108.01184 33466 ft 479 kts 286°
2026-04-19 03:36 2.12373 107.97964 33698 ft 482 kts 286°
2026-04-19 03:36 2.13277 107.94725 33926 ft 484 kts 286°
2026-04-19 03:37 2.14184 107.91473 34159 ft 486 kts 286°
2026-04-19 03:37 2.15094 107.88213 34398 ft 487 kts 286°
2026-04-19 03:37 2.16005 107.84950 34703 ft 486 kts 286°
2026-04-19 03:37 2.16904 107.81733 35082 ft 484 kts 286°
2026-04-19 03:38 2.17807 107.78490 35473 ft 482 kts 286°
2026-04-19 03:38 2.18703 107.75261 35832 ft 481 kts 286°
2026-04-19 03:38 2.19596 107.72045 36200 ft 479 kts 286°
2026-04-19 03:38 2.20486 107.68835 36571 ft 478 kts 285°
2026-04-19 03:39 2.21374 107.65635 36948 ft 477 kts 286°
2026-04-19 03:39 2.22259 107.62448 37316 ft 475 kts 285°
2026-04-19 03:39 2.23144 107.59265 37675 ft 474 kts 285°
2026-04-19 03:39 2.24024 107.56094 38030 ft 473 kts 285°
2026-04-19 03:40 2.24908 107.52914 38384 ft 472 kts 285°
2026-04-19 03:40 2.25777 107.49787 38711 ft 472 kts 285°
2026-04-19 03:40 2.26654 107.46629 38985 ft 471 kts 285°
2026-04-19 03:40 2.27531 107.43473 39268 ft 470 kts 285°
2026-04-19 03:41 2.28407 107.40315 39520 ft 470 kts 285°
2026-04-19 03:41 2.29282 107.37166 39776 ft 470 kts 285°
2026-04-19 03:41 2.29861 107.35082 39900 ft 470 kts 285°
2026-04-19 03:42 2.31601 107.28812 39928 ft 466 kts 285°
2026-04-19 03:42 2.33615 107.21556 39931 ft 465 kts 285°
2026-04-19 03:43 2.35059 107.16356 39931 ft 466 kts 285°
2026-04-19 03:43 2.36791 107.10113 39931 ft 466 kts 285°
2026-04-19 03:44 2.38522 107.03872 39932 ft 466 kts 285°
2026-04-19 03:44 2.40244 106.97611 39934 ft 466 kts 285°
2026-04-19 03:45 2.41953 106.91396 39934 ft 466 kts 285°
2026-04-19 03:45 2.43675 106.85143 39933 ft 466 kts 285°
2026-04-19 03:46 2.45397 106.78894 39935 ft 466 kts 285°
2026-04-19 03:46 2.47120 106.72640 39933 ft 466 kts 285°
2026-04-19 03:47 2.48847 106.66371 39936 ft 467 kts 285°
2026-04-19 03:47 2.50559 106.60154 39937 ft 467 kts 285°
2026-04-19 03:48 2.52288 106.53874 39933 ft 468 kts 285°
2026-04-19 03:48 2.54011 106.47605 39931 ft 468 kts 285°
2026-04-19 03:49 2.55726 106.41322 39932 ft 469 kts 285°
2026-04-19 03:49 2.57458 106.35032 39932 ft 469 kts 285°
2026-04-19 03:50 2.59200 106.28744 39931 ft 469 kts 285°
2026-04-19 03:50 2.60943 106.22451 39930 ft 469 kts 285°
2026-04-19 03:51 2.62687 106.16151 39930 ft 470 kts 285°
2026-04-19 03:51 2.64420 106.09889 39932 ft 470 kts 285°
2026-04-19 03:52 2.66163 106.03586 39930 ft 470 kts 285°
2026-04-19 03:52 2.67907 105.97281 39930 ft 470 kts 285°
2026-04-19 03:53 2.69652 105.90972 39935 ft 470 kts 285°
2026-04-19 03:53 2.71394 105.84670 39926 ft 470 kts 285°
2026-04-19 03:54 2.73135 105.78372 39929 ft 470 kts 285°
2026-04-19 03:54 2.74864 105.72116 39926 ft 470 kts 285°
2026-04-19 03:55 2.76607 105.65821 39928 ft 469 kts 285°
2026-04-19 03:55 2.78347 105.59519 39928 ft 469 kts 285°
2026-04-19 03:56 2.80082 105.53230 39926 ft 468 kts 285°
2026-04-19 03:56 2.81815 105.46955 39925 ft 468 kts 285°
2026-04-19 03:57 2.83546 105.40687 39926 ft 468 kts 285°
2026-04-19 03:57 2.85280 105.34408 39927 ft 467 kts 285°
2026-04-19 03:58 2.87011 105.28137 39925 ft 467 kts 285°
2026-04-19 03:58 2.88733 105.21899 39925 ft 468 kts 285°
2026-04-19 03:59 2.90473 105.15627 39925 ft 468 kts 285°
2026-04-19 03:59 2.92207 105.09348 39929 ft 468 kts 285°
2026-04-19 04:00 2.93941 105.03059 39923 ft 468 kts 285°
2026-04-19 04:00 2.95675 104.96776 39924 ft 469 kts 285°
2026-04-19 04:01 2.97403 104.90516 39925 ft 469 kts 285°
2026-04-19 04:01 3.00013 104.81065 39927 ft 470 kts 285°
2026-04-19 04:02 3.01582 104.74726 39922 ft 470 kts 279°
2026-04-19 04:02 3.01561 104.68199 39920 ft 471 kts 260°
2026-04-19 04:03 2.99326 104.62057 39920 ft 473 kts 240°
2026-04-19 04:03 2.95421 104.56755 39923 ft 474 kts 231°
2026-04-19 04:04 2.91323 104.51593 39920 ft 474 kts 236°
2026-04-19 04:04 2.88563 104.45682 39916 ft 473 kts 255°
2026-04-19 04:05 2.87996 104.42434 39919 ft 473 kts 266°
2026-04-19 04:05 2.87994 104.39152 39923 ft 472 kts 273°
2026-04-19 04:05 2.88541 104.32602 39917 ft 472 kts 275°
2026-04-19 04:06 2.89235 104.26102 39916 ft 472 kts 276°
2026-04-19 04:06 2.89925 104.19567 39918 ft 471 kts 281°
2026-04-19 04:07 2.90973 104.13118 39914 ft 470 kts 285°
2026-04-19 04:07 2.91398 104.06575 39929 ft 472 kts 275°
2026-04-19 04:08 2.91156 103.99991 39917 ft 475 kts 272°
2026-04-19 04:08 2.90573 103.93445 39915 ft 474 kts 262°
2026-04-19 04:09 2.89667 103.86925 39905 ft 472 kts 262°
2026-04-19 04:09 2.88928 103.80409 39902 ft 472 kts 264°
2026-04-19 04:10 2.88412 103.73861 39892 ft 472 kts 265°
2026-04-19 04:10 2.87989 103.67310 39891 ft 471 kts 266°
2026-04-19 04:11 2.87553 103.60759 39891 ft 471 kts 265°
2026-04-19 04:11 2.87053 103.54277 39779 ft 468 kts 265°
2026-04-19 04:12 2.86798 103.51035 39051 ft 463 kts 265°
2026-04-19 04:12 2.86716 103.50003 38749 ft 462 kts 265°
2026-04-19 04:12 2.86482 103.47060 37827 ft 468 kts 265°
2026-04-19 04:12 2.86217 103.43766 36802 ft 479 kts 265°
2026-04-19 04:13 2.85941 103.40413 35837 ft 487 kts 265°
2026-04-19 04:13 2.85663 103.37063 34912 ft 490 kts 265°
2026-04-19 04:13 2.85386 103.33683 34139 ft 486 kts 265°
2026-04-19 04:13 2.85114 103.30319 33586 ft 483 kts 265°
2026-04-19 04:14 2.84849 103.26979 33032 ft 480 kts 266°
2026-04-19 04:14 2.84590 103.23651 32486 ft 476 kts 266°
2026-04-19 04:14 2.84332 103.20361 31958 ft 473 kts 266°
2026-04-19 04:14 2.84073 103.17087 31427 ft 471 kts 266°
2026-04-19 04:15 2.83813 103.13825 30896 ft 468 kts 266°
2026-04-19 04:15 2.83555 103.10608 30377 ft 466 kts 266°
2026-04-19 04:15 2.83296 103.07383 29827 ft 464 kts 266°
2026-04-19 04:15 2.83038 103.04167 29258 ft 461 kts 266°
2026-04-19 04:16 2.82783 103.00993 28912 ft 453 kts 266°
2026-04-19 04:16 2.82531 102.97847 28260 ft 453 kts 266°
2026-04-19 04:16 2.82281 102.94748 27695 ft 451 kts 266°
2026-04-19 04:16 2.82028 102.91608 27162 ft 447 kts 266°
2026-04-19 04:17 2.81782 102.88543 26639 ft 444 kts 266°
2026-04-19 04:17 2.81536 102.85494 26352 ft 433 kts 266°
2026-04-19 04:17 2.81300 102.82576 25958 ft 410 kts 266°
2026-04-19 04:17 2.81076 102.79796 25522 ft 391 kts 266°
2026-04-19 04:18 2.80861 102.77133 24933 ft 378 kts 265°
2026-04-19 04:18 2.80652 102.74542 24376 ft 367 kts 265°
2026-04-19 04:18 2.80450 102.72032 23831 ft 359 kts 265°
2026-04-19 04:18 2.80252 102.69575 23412 ft 348 kts 265°
2026-04-19 04:19 2.80003 102.67206 22872 ft 337 kts 261°
2026-04-19 04:19 2.79535 102.64942 22490 ft 327 kts 257°
2026-04-19 04:19 2.79010 102.62744 22221 ft 324 kts 257°
2026-04-19 04:19 2.78477 102.60553 21914 ft 323 kts 257°
2026-04-19 04:20 2.77946 102.58379 21596 ft 321 kts 257°
2026-04-19 04:20 2.77419 102.56220 21279 ft 319 kts 257°
2026-04-19 04:20 2.76894 102.54065 20965 ft 318 kts 257°
2026-04-19 04:20 2.76369 102.51913 20674 ft 318 kts 257°
2026-04-19 04:21 2.75854 102.49799 20356 ft 316 kts 256°
2026-04-19 04:21 2.75338 102.47682 20179 ft 309 kts 256°
2026-04-19 04:21 2.74838 102.45630 19997 ft 296 kts 256°
2026-04-19 04:21 2.74357 102.43659 19572 ft 288 kts 256°
2026-04-19 04:22 2.73889 102.41741 19201 ft 283 kts 256°
2026-04-19 04:22 2.73422 102.39826 18899 ft 283 kts 256°
2026-04-19 04:22 2.72956 102.37919 18614 ft 282 kts 256°
2026-04-19 04:22 2.72492 102.36015 18334 ft 280 kts 256°
2026-04-19 04:23 2.72032 102.34127 18045 ft 279 kts 256°
2026-04-19 04:23 2.71575 102.32256 17774 ft 275 kts 256°
2026-04-19 04:23 2.71126 102.30431 17564 ft 263 kts 256°
2026-04-19 04:23 2.70830 102.28661 17235 ft 255 kts 266°
2026-04-19 04:24 2.70917 102.26902 16981 ft 252 kts 280°
2026-04-19 04:24 2.71434 102.25247 16845 ft 250 kts 295°
2026-04-19 04:24 2.72333 102.23780 16835 ft 250 kts 309°
2026-04-19 04:24 2.73517 102.22511 16839 ft 249 kts 315°
2026-04-19 04:25 2.74773 102.21315 16834 ft 249 kts 316°
2026-04-19 04:25 2.76038 102.20126 16834 ft 249 kts 316°
2026-04-19 04:25 2.77303 102.18931 16809 ft 249 kts 316°
2026-04-19 04:25 2.78583 102.17763 16742 ft 249 kts 321°
2026-04-19 04:26 2.80047 102.16849 16647 ft 248 kts 336°
2026-04-19 04:26 2.81711 102.16402 16519 ft 247 kts 354°
2026-04-19 04:26 2.83420 102.16387 16407 ft 246 kts
2026-04-19 04:26 2.85135 102.16499 16329 ft 246 kts
2026-04-19 04:27 2.86818 102.16620 16256 ft 246 kts
2026-04-19 04:27 2.88584 102.16582 16204 ft 269 kts 354°
2026-04-19 04:27 2.90555 102.16272 16186 ft 306 kts 350°
2026-04-19 04:27 2.92727 102.15847 16153 ft 325 kts 349°
2026-04-19 04:28 2.94958 102.15379 16097 ft 328 kts 346°
2026-04-19 04:28 2.97097 102.14581 15989 ft 328 kts 336°
2026-04-19 04:28 2.99151 102.13580 15864 ft 328 kts 334°
2026-04-19 04:28 3.01156 102.12570 15761 ft 327 kts 334°
2026-04-19 04:29 3.03126 102.11418 15715 ft 334 kts 326°
2026-04-19 04:29 3.04935 102.09831 15725 ft 358 kts 310°
2026-04-19 04:29 3.06187 102.07648 15723 ft 365 kts 288°
2026-04-19 04:29 3.06520 102.05142 15728 ft 366 kts 266°
2026-04-19 04:30 3.05886 102.02685 15678 ft 366 kts 244°
2026-04-19 04:30 3.04394 102.00645 15446 ft 363 kts 222°
2026-04-19 04:30 3.02346 101.99234 15125 ft 356 kts 210°
2026-04-19 04:30 3.00220 101.97968 14705 ft 354 kts 211°
2026-04-19 04:31 2.98205 101.96649 14417 ft 347 kts 214°
2026-04-19 04:31 2.96915 101.95732 14337 ft 339 kts 216°
2026-04-19 04:31 2.95063 101.94342 14217 ft 326 kts 217°
2026-04-19 04:31 2.93310 101.92971 14092 ft 314 kts 218°
2026-04-19 04:32 2.91636 101.91626 13959 ft 303 kts 218°
2026-04-19 04:32 2.90022 101.90310 13763 ft 296 kts 218°
2026-04-19 04:32 2.88436 101.89007 13397 ft 293 kts 219°
2026-04-19 04:32 2.86912 101.87746 13084 ft 284 kts 219°
2026-04-19 04:33 2.85535 101.86340 12883 ft 285 kts 231°
2026-04-19 04:33 2.84366 101.84728 12557 ft 286 kts 235°
2026-04-19 04:33 2.83254 101.83079 12269 ft 285 kts 236°
2026-04-19 04:33 2.82107 101.81498 12044 ft 274 kts 227°
2026-04-19 04:34 2.80603 101.80398 11712 ft 266 kts 202°
2026-04-19 04:34 2.78824 101.80120 11414 ft 257 kts 174°
2026-04-19 04:34 2.77142 101.80641 11149 ft 254 kts 152°
2026-04-19 04:34 2.75655 101.81561 10882 ft 253 kts 146°
2026-04-19 04:35 2.74202 101.82559 10635 ft 253 kts 146°
2026-04-19 04:35 2.72760 101.83553 10361 ft 252 kts 146°
2026-04-19 04:35 2.71315 101.84540 10097 ft 251 kts 146°
2026-04-19 04:35 2.69874 101.85518 9911 ft 251 kts 146°
2026-04-19 04:36 2.68428 101.86495 9694 ft 250 kts 147°
2026-04-19 04:36 2.66990 101.87462 9443 ft 248 kts 147°
2026-04-19 04:36 2.65556 101.88423 9186 ft 247 kts 147°
2026-04-19 04:36 2.64135 101.89376 8930 ft 244 kts 146°
2026-04-19 04:37 2.62723 101.90322 8686 ft 244 kts 146°
2026-04-19 04:37 2.61327 101.91263 8355 ft 244 kts 146°
2026-04-19 04:37 2.59922 101.92204 8016 ft 242 kts 146°
2026-04-19 04:37 2.58525 101.93138 7745 ft 242 kts 146°
2026-04-19 04:38 2.57132 101.94069 7484 ft 240 kts 146°
2026-04-19 04:38 2.55736 101.95004 7264 ft 241 kts 146°
2026-04-19 04:38 2.54290 101.95772 7075 ft 229 kts 163°
2026-04-19 04:38 2.52748 101.95786 6729 ft 222 kts 196°
2026-04-19 04:39 2.51482 101.94934 6317 ft 221 kts 228°
2026-04-19 04:39 2.50572 101.93703 5870 ft 220 kts 236°
2026-04-19 04:39 2.49733 101.92420 5436 ft 219 kts 237°
2026-04-19 04:39 2.49179 101.91049 4995 ft 216 kts 267°
2026-04-19 04:40 2.49576 101.89646 4632 ft 212 kts 306°
2026-04-19 04:40 2.50573 101.88614 4524 ft 202 kts 321°
2026-04-19 04:40 2.51675 101.87808 4492 ft 189 kts 327°
2026-04-19 04:40 2.52738 101.87089 4490 ft 181 kts 328°
2026-04-19 04:41 2.53784 101.86391 4498 ft 180 kts 328°
2026-04-19 04:41 2.54811 101.85701 4493 ft 180 kts 328°
2026-04-19 04:41 2.55847 101.84999 4400 ft 180 kts 327°
2026-04-19 04:41 2.56883 101.84293 4186 ft 180 kts 327°
2026-04-19 04:42 2.57911 101.83602 3950 ft 177 kts 328°
2026-04-19 04:42 2.58931 101.82917 3690 ft 177 kts 328°
2026-04-19 04:42 2.59957 101.82228 3421 ft 175 kts 327°
2026-04-19 04:42 2.60960 101.81550 3192 ft 172 kts 327°
2026-04-19 04:43 2.61942 101.80888 2981 ft 169 kts 327°
2026-04-19 04:43 2.62909 101.80237 2755 ft 166 kts 327°
2026-04-19 04:43 2.63847 101.79605 2559 ft 164 kts 327°
2026-04-19 04:43 2.64780 101.78977 2335 ft 159 kts 327°
2026-04-19 04:44 2.65690 101.78365 2143 ft 155 kts 327°
2026-04-19 04:44 2.66565 101.77776 1952 ft 149 kts 326°
2026-04-19 04:44 2.67410 101.77207 1753 ft 143 kts 326°
2026-04-19 04:44 2.68230 101.76656 1574 ft 140 kts 326°
2026-04-19 04:45 2.69036 101.76109 1393 ft 141 kts 324°
2026-04-19 04:45 2.69851 101.75559 1220 ft 142 kts 325°
2026-04-19 04:45 2.70668 101.75007 1035 ft 141 kts 324°
2026-04-19 04:45 2.71478 101.74464 866 ft 138 kts 326°
2026-04-19 04:46 2.72264 101.73935 709 ft 138 kts 325°
2026-04-19 04:46 2.73053 101.73389 562 ft 139 kts 323°
2026-04-19 04:46 2.73847 101.72854 364 ft 136 kts 326°
2026-04-19 04:46 2.74645 101.72339 180 ft 136 kts 326°
2026-04-19 04:47 2.75408 101.71823 87 ft 126 kts 326°
2026-04-19 04:47 2.75968 101.71447 86 ft 58 kts 326°
2026-04-19 04:47 2.76254 101.71256 68 ft 37 kts 326°
2026-04-19 04:47 2.76385 101.71168 66 ft 20 kts 326°
2026-04-19 04:48 2.76492 101.71069 68 ft 22 kts 308°
2026-04-19 04:48 2.76553 101.70972 65 ft 9 kts 296°
2026-04-19 04:48 2.76580 101.70910 70 ft 10 kts 286°
2026-04-19 04:48 2.76569 101.70854 67 ft 7 kts 231°
2026-04-19 04:49 2.76524 101.70850 66 ft 7 kts 159°
2026-04-19 04:49 2.76472 101.70881 66 ft 10 kts 147°
2026-04-19 04:49 2.76407 101.70923 64 ft 13 kts 147°
2026-04-19 04:49 2.76325 101.70979 64 ft 16 kts 145°
2026-04-19 04:50 2.76226 101.71046 66 ft 18 kts 146°
2026-04-19 04:50 2.76145 101.71100 67 ft 9 kts 146°
2026-04-19 04:50 2.76089 101.71137 71 ft 11 kts 146°
2026-04-19 04:50 2.76017 101.71186 69 ft 14 kts 146°
2026-04-19 04:51 2.75929 101.71245 69 ft 16 kts 146°
2026-04-19 04:51 2.75830 101.71311 84 ft 18 kts 146°
2026-04-19 04:51 2.75724 101.71383 84 ft 14 kts 146°
2026-04-19 04:51 2.75640 101.71439 83 ft 13 kts 146°
2026-04-19 04:52 2.75570 101.71485 84 ft 9 kts 153°
2026-04-19 04:52 2.75511 101.71470 69 ft 11 kts 225°
2026-04-19 04:52 2.75463 101.71400 84 ft 14 kts 237°
2026-04-19 04:52 2.75406 101.71315 84 ft 12 kts 236°
2026-04-19 04:53 2.75359 101.71246 84 ft 14 kts 236°
2026-04-19 04:53 2.75311 101.71176 83 ft 10 kts 236°
2026-04-19 04:53 2.75263 101.71106 83 ft 14 kts 236°
2026-04-19 04:53 2.75214 101.71035 83 ft 13 kts 236°
2026-04-19 04:54 2.75157 101.70951 84 ft 16 kts 236°
2026-04-19 04:54 2.75088 101.70850 84 ft 15 kts 236°
2026-04-19 04:54 2.75047 101.70790 83 ft 11 kts 236°
2026-04-19 04:54 2.74998 101.70718 85 ft 13 kts 236°
2026-04-19 04:55 2.74969 101.70670 82 ft 7 kts 250°
2026-04-19 04:55 2.74972 101.70644 83 ft 2 kts 289°
2026-04-19 04:55 2.74985 101.70627 80 ft 5 kts 313°
2026-04-19 04:55 2.75020 101.70600 82 ft 8 kts 324°
2026-04-19 04:56 2.75060 101.70571 84 ft 8 kts 322°
2026-04-19 04:56 2.75074 101.70528 82 ft 7 kts 262°
2026-04-19 04:56 2.75057 101.70490 82 ft 4 kts 239°
2026-04-19 04:56 2.75044 101.70468 85 ft 5 kts 238°
2026-04-19 04:57 2.75027 101.70437 85 ft 4 kts 253°
2026-04-19 04:57 2.75037 101.70414 83 ft 2 kts 308°
2026-04-19 04:57 2.75052 101.70403 82 ft 4 kts 324°
2026-04-19 04:57 2.75072 101.70390 84 ft 1 kts 325°
2026-04-19 04:58 2.75081 101.70383 84 ft 0 kts 325°